THOR ABLESTAR DEB, 1435

Orbit data source: Space-Track

THOR ABLESTAR DEB, 1435 is space debris in LEO originally from a launch on Thu, 24 Jun 1965 UTC launched from the Air Force Western Test Range (AFWTR). Debris objects in space refer to the collection of defunct objects orbiting the Earth. Examples of debris include non-operational satellites, rocket bodies, and fragments generated from explosions, collisions, or faulty payload assembly.

Loading next visibility...
Identifier
1435, 1965-048D
Orbit
LEO
Last TLE update
20 hours ago
Origin
Manufacturer
Unknown
Mission
Spacecraft
Bus & Motor
Unknown
Mass
Unknown
Launch date (UTC)
1965-06-24 (60 years ago)
Launch vehicle
Unknown
Launch site
Air Force Western Test Range (AFWTR)
Object type
Payload
Rocket body
Debris
Shape & HBR
Unknown
Radar Cross Section
Small (<0.1 m²)

Expand to show TLE details & history

TLE from 20 hours ago
0 THOR ABLESTAR DEB
1 01435U 65048D   25128.47587638  .00000992  00000-0  10538-2 0  9991
2 01435  89.8863 294.9724 0061243  92.2741 322.1781 13.72732636971433
Epoch: 2025-05-08T11:25Z
Definitive object data (Epoch: 2025-05-08T11:25:15.719Z)
Latitude
54.11491°
Longitude
-102.73259°
Altitude
963.218 km
Speed
7.393 km/s
True Right ascension
19h 40m 30s
True Declination
53° 57' 22"
Sunlit
Object was in daylight at TLE epoch
Visualization TLE readout
Latitude
-86.73593°
Longitude
-104.88284°
Altitude
1,063.615 km
Speed
7.297 km/s
Apparent Right ascension
03h 35m 39s
Apparent Declination
-67° 52' 36"
Sunlit
Object is in daylight
Visualization observer readout
Local Sidereal Time
15:52:43
Azimuth
176.585° S
Elevation
-61.942°
Doppler factor
1
Orbital elements
Apogee altitude
1,031.898 km
Perigee altitude
941.688 km
Semi-major axis
7,364.93 km
Eccentricity
0.0061243
Inclination
89.8863°
RAAN
294.9724°
Arg. of periapsis
92.2741°
True anomaly
321.74514°
Mean anomaly
322.1781°
Eccentric anomaly
321.96188°
Mean motion
3.43392 °/min
BSTAR
0.0010538
Orbital period
104.84 mins
Loading maneuver chart data...
Loading SW <> Apogee altitude chart data...

THOR ABLESTAR DEB Visibility forecast

Observer location: undefined°, undefined°

Span
Click to sort rows by Start time (UTC) header in descending order
Start Az.
Max El. time (UTC)
Max El. Az.
Max El.
End time (UTC)
End Az.
7 mins2025-05-09 10:02:41.059Z113.359° SE2025-05-09 10:06:41.059Z71.033° E17.495°2025-05-09 10:09:41.059Z38.225° NE
10 mins2025-05-09 11:45:41.059Z191.836° SSW2025-05-09 11:50:41.059Z272.094° WNW41.527°2025-05-09 11:55:41.059Z348.955° N
10 mins2025-05-09 22:44:41.059Z20.108° NNE2025-05-09 22:49:41.059Z95.9° ESE34.442°2025-05-09 22:54:41.059Z156.412° SSE
7 mins2025-05-10 00:30:41.059Z324.405° NNW2025-05-10 00:33:41.059Z285.222° WNW23.686°2025-05-10 00:37:41.059Z236.401° WSW
|